Home   Weather   Peterborough   Past weeks

Flag for Canada Past Weather in Peterborough, Ontario, Canada — Yesterday and Last 2 Weeks

Now
28 °F

Low clouds.


Feels Like: 28 °F
Forecast: 27 / 38 °F
Wind: 2 mph from West

Location: Peterborough Airport

Current Time: Dec 5, 2016 at 9:47:08 am

Latest Report: Dec 5, 2016 at 9:00 am


Visibility: 9 mi

Pressure: 29.86 "Hg

Humidity: 100%

Dew Point: 28 °F

Location of PeterboroughLocation

Past Weather in Peterborough — Graph

°F

Peterborough Temperature Yesterday

Maximum temperature yesterday: 34 °F (at 2:00 pm)
Minimum temperature yesterday: 16 °F (at 7:00 am)
Average temperature yesterday: 26 °F

High & Low Weather Summary for the Past Weeks

 TemperatureHumidityPressure
High55 °F (Nov 30, 2:00 pm)100% (Nov 23, 2:00 am)30.40 "Hg (Nov 23, 2:00 am)
Low10 °F (Nov 23, 5:00 am)56% (Nov 22, 1:00 pm)29.40 "Hg (Nov 30, 10:00 pm)
Average33 °F87%29.98 "Hg
* Reported Nov 20 8:00 am — Dec 5 8:00 am, Peterborough, Weather by CustomWeather, © 2016

Note: Actual official high and low records may vary slightly from our data, if they occured in-between our weather recording intervals... More about our weather records

Advertising

Peterborough Weather History for the Previous 24 Hours

Scroll right to see more
 ConditionsComfort  
Time TempWeatherWind HumidityBarometerVisibility
8:00 am
Mon, Dec 5
28 °FLight snow. Overcast.2 mph100%29.83 "Hg7 mi
7:54 am28 °FLight snow. Overcast.No wind100%29.83 "Hg6 mi
7:00 am28 °FLight snow. Overcast.2 mph100%29.81 "Hg2 mi
6:58 am28 °FLight snow. Overcast.3 mph100%29.81 "Hg2 mi
6:00 am28 °FLight snow. Overcast.3 mph100%29.80 "Hg2 mi
5:56 am28 °FLight snow. Mostly cloudy.3 mph100%29.80 "Hg2 mi
5:00 am28 °FLight snow. Ice fog.5 mph100%29.82 "Hg1 mi
4:00 am28 °FLight snow. Low clouds.6 mph93%29.83 "Hg1 mi
3:00 am28 °FLight snow. Mostly cloudy.7 mph93%29.86 "Hg1 mi
2:55 am28 °FLight snow. Low clouds.5 mph93%29.86 "Hg1 mi
2:00 am27 °FLight snow. Low clouds.7 mph100%29.89 "Hg9 mi
1:47 am27 °FLight snow. Overcast.8 mph100%29.88 "Hg6 mi
1:00 am27 °FLight snow. Ice fog.8 mph100%29.90 "Hg1 mi
12:03 am27 °FLight snow. Ice fog.8 mph93%29.96 "Hg1 mi
11:00 pm
Sun, Dec 4
27 °FMostly cloudy.7 mph86%30.01 "Hg9 mi
10:00 pm28 °FOvercast.6 mph80%30.05 "Hg9 mi
9:00 pm28 °FMostly cloudy.8 mph80%30.08 "Hg9 mi
8:55 pm28 °FMostly cloudy.9 mph80%30.08 "Hg9 mi
8:00 pm28 °FPartly cloudy.7 mph74%30.11 "Hg9 mi
7:00 pm28 °FPartly cloudy.3 mph74%30.15 "Hg9 mi
6:00 pm27 °FClear.2 mph86%30.18 "Hg9 mi
5:00 pm30 °FOvercast.5 mph69%30.17 "Hg9 mi
4:00 pm32 °FSunny.3 mph64%30.20 "Hg9 mi
3:00 pm34 °FSunny.6 mph60%30.21 "Hg9 mi
2:00 pm34 °FSunny.3 mph65%30.24 "Hg9 mi
1:00 pm32 °FSunny.No wind69%30.27 "Hg9 mi
12:00 pm32 °FSunny.No wind69%30.29 "Hg9 mi
11:00 am30 °FSunny.2 mph69%30.32 "Hg9 mi
10:00 am28 °FSunny.6 mph80%30.32 "Hg9 mi
9:00 am25 °FSunny.2 mph93%30.31 "Hg9 mi
Weather by CustomWeather, © 2016

See weather overviewHow to use our weather pages